Change the Weather History Date:

Sunday, October 14, 2012

  Actual Average Record
Temperature  
Mean Temperature 70 °F -  
Max Temperature 79 °F 76 °F 95 °F (1963)
Min Temperature 60 °F 51 °F 32 °F (1977)
Cooling Degree Days 4    
Growing Degree Days 20 (Base 50)    
Moisture  
Dew Point 59 °F    
Average Humidity 77    
Maximum Humidity 94    
Minimum Humidity 42    
Precipitation  
Precipitation 0.99 in - - ()
Sea Level Pressure  
Sea Level Pressure 29.94 in    
Wind  
Wind Speed 9 mph (WSW)    
Max Wind Speed 16 mph    
Max Gust Speed 26 mph    
Visibility 8 miles    
Events Rain , Thunderstorm    
Averages and records for this station are not official NWS values.
T = Trace of Precipitation, MM = Missing Value Source: NWS Daily Summary

Daily Weather History Graph

Daily Weather History Graph

Search for Another Location

Airport or City:

Trip Planner

Search our weather history database for the weather conditions in past years. The results will help you decide how hot, cold, wet, or windy it might be!

Date:

Astronomy

Oct. 14, 2012 Rise Set
Actual Time 7:17 AM CDT 6:38 PM CDT
Civil Twilight 6:52 AM CDT 7:03 PM CDT
Nautical Twilight 6:22 AM CDT 7:32 PM CDT
Astronomical Twilight 5:53 AM CDT 8:02 PM CDT
Moon 6:17 AM CDT (10/14) 5:59 PM CDT (10/14)
Length of Visible Light 12h 11m
Length of Day
11h 21m
Waning Crescent, 1% of the Moon is Illuminated
Oct 14
Waning Crescent
Oct 15
New
Oct 21
First Quarter
Oct 29
Full
Nov 6
Last Quarter

Hourly Weather History & Observations

Time (CDT) Temp. Dew Point Humidity Pressure Visibility Wind Dir Wind Speed Gust Speed Precip Events Conditions
12:53 AM 75.0 °F 64.0 °F 69% 29.87 in 10.0 mi SSW 11.5 mph 21.9 mph N/A   Mostly Cloudy
1:16 AM 73.4 °F 64.4 °F 73% 29.91 in 10.0 mi West 5.8 mph 19.6 mph 0.00 in Rain , Thunderstorm Light Rain
1:24 AM 71.6 °F 62.6 °F 73% 29.93 in 10.0 mi WNW 16.1 mph 26.5 mph 0.00 in Thunderstorm Overcast
1:32 AM 66.2 °F 62.6 °F 88% 29.92 in 2.0 mi West 10.4 mph 24.2 mph 0.14 in Rain , Thunderstorm Heavy Rain
1:39 AM 66.2 °F 62.6 °F 88% 29.93 in 1.2 mi West 13.8 mph 24.2 mph 0.28 in Rain , Thunderstorm Heavy Thunderstorms and Rain
1:46 AM 66.2 °F 62.6 °F 88% 29.94 in 1.5 mi West 11.5 mph 23.0 mph 0.35 in Rain , Thunderstorm Heavy Thunderstorms and Rain
1:53 AM 64.9 °F 63.0 °F 93% 29.92 in 1.8 mi West 9.2 mph 23.0 mph 0.43 in Rain , Thunderstorm Heavy Rain
2:04 AM 64.4 °F 62.6 °F 94% 29.94 in 1.8 mi West 6.9 mph - 0.09 in Rain , Thunderstorm Heavy Thunderstorms and Rain
2:35 AM 64.4 °F 62.6 °F 94% 29.92 in 2.5 mi SW 6.9 mph - 0.38 in Rain Heavy Rain
2:43 AM 64.4 °F 62.6 °F 94% 29.91 in 6.0 mi SSW 5.8 mph - 0.39 in Rain Light Rain
2:53 AM 64.0 °F 62.1 °F 93% 29.88 in 8.0 mi Calm Calm - 0.39 in Rain Rain
3:53 AM 64.0 °F 62.1 °F 93% 29.88 in 8.0 mi South 5.8 mph - 0.10 in Rain Rain
4:53 AM 64.0 °F 61.0 °F 90% 29.85 in 10.0 mi SSW 6.9 mph - 0.07 in   Mostly Cloudy
5:21 AM 64.4 °F 60.8 °F 88% 29.88 in 10.0 mi SSW 9.2 mph 17.3 mph N/A   Mostly Cloudy
5:48 AM 64.4 °F 60.8 °F 88% 29.90 in 10.0 mi WSW 8.1 mph - N/A   Scattered Clouds
5:53 AM 63.0 °F 60.1 °F 90% 29.89 in 10.0 mi WSW 10.4 mph - N/A   Partly Cloudy
6:53 AM 62.1 °F 59.0 °F 90% 29.88 in 10.0 mi SW 11.5 mph - N/A   Clear
7:50 AM 62.6 °F 60.8 °F 94% 29.91 in 10.0 mi SW 8.1 mph - N/A   Mostly Cloudy
7:53 AM 63.0 °F 60.1 °F 90% 29.90 in 10.0 mi SW 8.1 mph - N/A   Mostly Cloudy
8:53 AM 64.0 °F 60.1 °F 87% 29.95 in 10.0 mi SW 8.1 mph - N/A   Overcast
9:35 AM 64.4 °F 60.8 °F 88% 29.99 in 10.0 mi WSW 9.2 mph - N/A   Overcast
9:53 AM 66.0 °F 61.0 °F 84% 29.98 in 10.0 mi SSW 8.1 mph - N/A   Overcast
10:53 AM 68.0 °F 60.1 °F 76% 29.99 in 10.0 mi WSW 8.1 mph - N/A   Mostly Cloudy
11:22 AM 69.8 °F 60.8 °F 73% 30.00 in 10.0 mi SW 8.1 mph - N/A   Scattered Clouds
11:53 AM 72.0 °F 60.1 °F 66% 29.98 in 10.0 mi WSW 9.2 mph - N/A   Partly Cloudy
12:53 PM 75.0 °F 57.9 °F 55% 29.97 in 10.0 mi WSW 15.0 mph 19.6 mph N/A   Clear
1:53 PM 77.0 °F 57.9 °F 52% 29.95 in 10.0 mi West 6.9 mph 16.1 mph N/A   Clear
2:53 PM 78.8 °F 57.2 °F 47% 29.95 in 10.0 mi WNW 4.6 mph - N/A   Clear
3:53 PM 78.1 °F 53.1 °F 42% 29.94 in 10.0 mi NW 8.1 mph 18.4 mph N/A   Clear
4:53 PM 77.0 °F 54.0 °F 45% 29.95 in 10.0 mi WNW 6.9 mph - N/A   Clear
5:53 PM 75.0 °F 54.0 °F 48% 29.96 in 10.0 mi WNW 3.5 mph - N/A   Clear
6:53 PM 71.1 °F 52.0 °F 51% 29.98 in 10.0 mi NW 5.8 mph - N/A   Clear
7:53 PM 68.0 °F 53.1 °F 59% 30.00 in 10.0 mi Calm Calm - N/A   Clear
8:53 PM 64.0 °F 55.0 °F 73% 30.01 in 10.0 mi NNW 3.5 mph - N/A   Clear
9:53 PM 63.0 °F 55.0 °F 75% 30.02 in 10.0 mi NW 3.5 mph - N/A   Clear
10:53 PM 61.0 °F 54.0 °F 78% 30.03 in 10.0 mi NW 3.5 mph - N/A   Clear
11:53 PM 60.1 °F 54.0 °F 80% 30.04 in 10.0 mi Calm Calm - N/A   Clear